FW4132 Weather Reports


Display with metric or nautical units.
time (UTC)temp
F
wind
direction
speed
MPH
gust
MPH
rain 1hr
in
rain 24hr
in
rain mn
in
humidity
%
barometer
mb
20260510123206 42 150 0.0 0.0 0.00 0.00 0.00 81 1019.3
20260510123009 41 150 0.0 0.0 0.00 0.00 0.00 81 1017.6
20260510122704 42 150 0.0 1.0 0.00 0.00 0.00 81 1019.2
20260510122503 41 150 0.0 1.0 0.00 0.00 0.00 81 1017.7
20260510122424 42 150 0.0 1.0 0.00 0.00 0.00 81 1019.3
20260510122003 41 150 0.0 1.0 0.00 0.00 0.00 81 1017.6
20260510121701 42 150 0.0 1.0 0.00 0.00 0.00 82 1019.3
20260510121510 41 150 0.0 1.0 0.00 0.00 0.00 80 1017.7
20260510121201 42 150 0.0 1.0 0.00 0.00 0.00 81 1019.3
20260510121005 41 150 0.0 1.0 0.00 0.00 0.00 80 1017.7
20260510120924 42 151 0.0 0.0 0.00 0.00 0.00 79 1019.5
20260510120509 41 150 0.0 0.0 0.00 0.00 0.00 78 1017.8
20260510120420 42 150 0.0 0.0 0.00 0.00 0.00 78 1019.5
20260510120010 41 150 0.0 0.0 0.00 0.00 0.00 77 1017.8
20260510115657 42 150 0.0 0.0 0.00 0.00 0.00 78 1019.6
20260510115504 41 150 0.0 0.0 0.00 0.00 0.00 77 1017.8
20260510115157 42 150 0.0 0.0 0.00 0.00 0.00 77 1019.5
20260510115008 42 150 0.0 0.0 0.00 0.00 0.00 77 1017.9
20260510114920 42 150 0.0 0.0 0.00 0.00 0.00 78 1019.6
20260510114525 42 150 0.0 0.0 0.00 0.00 0.00 77 1017.9
20260510114417 42 150 0.0 0.0 0.00 0.00 0.00 78 1019.6
20260510114004 42 151 0.0 0.0 0.00 0.00 0.00 77 1017.9
20260510113656 42 150 0.0 0.0 0.00 0.00 0.00 78 1019.8
20260510113504 42 150 0.0 1.0 0.00 0.00 0.00 77 1018.0
20260510113411 42 150 0.0 1.0 0.00 0.00 0.00 78 1019.8
20260510113023 42 150 0.0 1.0 0.00 0.00 0.00 76 1018.0
20260510112650 42 150 0.0 1.0 0.00 0.00 0.00 76 1019.8
20260510112503 42 150 0.0 2.0 0.00 0.00 0.00 75 1018.1
20260510112151 42 150 0.0 2.0 0.00 0.00 0.00 74 1019.9
20260510112003 42 150 0.0 2.0 0.00 0.00 0.00 73 1018.2
20260510111911 43 150 0.0 2.0 0.00 0.00 0.00 74 1019.8
20260510111514 43 150 0.0 2.0 0.00 0.00 0.00 73 1018.2
20260510111146 44 122 0.0 1.0 0.00 0.00 0.00 73 1019.9
20260510111003 43 122 0.0 1.0 0.00 0.00 0.00 73 1018.2
20260510110503 44 122 0.0 2.0 0.00 0.00 0.00 72 1018.3
20260510110133 44 122 0.0 2.0 0.00 0.00 0.00 72 1020.0
20260510110020 44 122 0.0 2.0 0.00 0.00 0.00 71 1018.3
20260510105627 46 122 0.0 1.0 0.00 0.00 0.00 71 1020.0
20260510105507 45 122 0.0 1.0 0.00 0.00 0.00 72 1018.2
20260510105121 46 122 0.0 3.0 0.00 0.00 0.00 71 1019.9
20260510105006 46 122 0.0 3.0 0.00 0.00 0.00 71 1018.2
20260510104615 47 122 0.0 3.0 0.00 0.00 0.00 71 1019.9
20260510104514 46 122 0.0 3.0 0.00 0.00 0.00 72 1018.2
20260510104109 47 122 0.0 1.0 0.00 0.00 0.00 71 1020.0
20260510104006 47 122 0.0 1.0 0.00 0.00 0.00 71 1018.2
20260510103607 47 122 0.0 0.0 0.00 0.00 0.00 69 1020.0
20260510103507 47 122 0.0 0.0 0.00 0.00 0.00 68 1018.4
20260510103106 48 122 0.0 2.0 0.00 0.00 0.00 67 1020.1
20260510103024 47 122 0.0 2.0 0.00 0.00 0.00 67 1018.4
20260510102826 48 121 1.0 4.0 0.00 0.00 0.00 67 1020.1
20260510102508 48 121 0.0 4.0 0.00 0.00 0.00 66 1018.5
20260510102329 49 122 2.0 7.0 0.00 0.00 0.00 67 1020.1
20260510102016 48 122 0.0 7.0 0.00 0.00 0.00 67 1018.4
20260510101606 49 121 1.0 7.0 0.00 0.00 0.00 67 1020.1
20260510101526 48 112 0.0 7.0 0.00 0.00 0.00 68 1018.4
20260510101107 49 119 1.0 7.0 0.00 0.00 0.00 68 1020.0
20260510101006 49 105 0.0 6.0 0.00 0.00 0.00 66 1018.4
20260510100606 49 131 1.0 7.0 0.00 0.00 0.00 64 1020.1
20260510100505 49 131 0.0 7.0 0.00 0.00 0.00 65 1018.5
20260510100107 50 98 1.0 7.0 0.00 0.00 0.00 63 1020.1
20260510100015 49 98 0.0 7.0 0.00 0.00 0.00 62 1018.6
20260510095607 50 110 0.0 7.0 0.00 0.00 0.00 63 1020.4
20260510095503 49 63 0.0 3.0 0.00 0.00 0.00 63 1018.5
20260510095107 50 121 1.0 7.0 0.00 0.00 0.00 64 1020.3
20260510095006 49 121 0.0 7.0 0.00 0.00 0.00 64 1018.6
20260510094603 50 102 2.0 7.0 0.00 0.00 0.00 64 1020.4
20260510094521 49 107 0.0 7.0 0.00 0.00 0.00 63 1018.7
20260510094103 49 123 2.0 6.0 0.00 0.00 0.00 63 1020.4
20260510094007 49 127 3.0 6.0 0.00 0.00 0.00 64 1018.7
20260510093603 49 107 1.0 6.0 0.00 0.00 0.00 63 1020.4
20260510093504 49 117 0.0 4.0 0.00 0.00 0.00 62 1018.8
20260510093103 49 138 1.0 3.0 0.00 0.00 0.00 62 1020.6
20260510093023 49 130 1.0 4.0 0.00 0.00 0.00 62 1018.9
20260510092602 50 134 2.0 7.0 0.00 0.00 0.00 61 1020.5
20260510092506 49 134 0.0 11.0 0.00 0.00 0.00 61 1018.8
20260510092103 50 113 4.0 11.0 0.00 0.00 0.00 63 1020.4
20260510092013 49 110 1.0 11.0 0.00 0.00 0.00 61 1018.7
20260510091602 50 130 4.0 11.0 0.00 0.00 0.00 64 1020.4
20260510091517 49 108 4.0 8.0 0.00 0.00 0.00 63 1018.8
20260510091103 50 115 3.0 8.0 0.00 0.00 0.00 63 1020.5
20260510091009 49 115 3.0 8.0 0.00 0.00 0.00 63 1018.8
20260510090603 50 129 2.0 9.0 0.00 0.00 0.00 62 1020.6
20260510090510 50 114 1.0 9.0 0.00 0.00 0.00 61 1018.9
20260510090028 50 116 2.0 9.0 0.00 0.00 0.00 62 1018.9
20260510085603 50 92 2.0 9.0 0.00 0.00 0.00 62 1020.5
20260510085506 50 111 0.0 9.0 0.00 0.00 0.00 62 1018.9
20260510085103 50 112 3.0 9.0 0.00 0.00 0.00 62 1020.5
20260510085009 50 105 3.0 8.0 0.00 0.00 0.00 62 1018.9
20260510084601 50 107 3.0 8.0 0.00 0.00 0.00 62 1020.5
20260510084516 50 112 3.0 8.0 0.00 0.00 0.00 62 1019.0
20260510084101 50 103 4.0 12.0 0.00 0.00 0.00 63 1020.5
20260510084006 49 140 2.0 12.0 0.00 0.00 0.00 64 1019.0
20260510083822 50 105 6.0 12.0 0.00 0.00 0.00 65 1020.4
20260510083510 49 107 4.0 12.0 0.00 0.00 0.00 64 1019.1
20260510083101 49 94 5.0 11.0 0.00 0.00 0.00 65 1020.5
20260510083025 48 108 6.0 11.0 0.00 0.00 0.00 65 1019.1
20260510082824 48 100 3.0 10.0 0.00 0.00 0.00 66 1020.6
20260510082506 48 96 4.0 9.0 0.00 0.00 0.00 65 1019.3
20260510082100 48 93 2.0 8.0 0.00 0.00 0.00 67 1020.7
20260510082010 48 119 1.0 8.0 0.00 0.00 0.00 66 1019.3
20260510081557 48 106 3.0 8.0 0.00 0.00 0.00 68 1020.7
20260510081537 47 98 2.0 8.0 0.00 0.00 0.00 68 1019.3
20260510081056 48 119 1.0 7.0 0.00 0.00 0.00 68 1020.7
20260510081009 47 105 1.0 6.0 0.00 0.00 0.00 70 1019.3
20260510080557 48 105 2.0 6.0 0.00 0.00 0.00 69 1020.7
20260510080506 47 101 0.0 6.0 0.00 0.00 0.00 68 1019.4
20260510080027 47 98 1.0 7.0 0.00 0.00 0.00 68 1019.5
20260510075554 48 121 3.0 7.0 0.00 0.00 0.00 70 1020.8
20260510075506 47 109 4.0 7.0 0.00 0.00 0.00 71 1019.4
20260510075055 48 101 3.0 6.0 0.00 0.00 0.00 70 1020.9
20260510075009 47 107 3.0 6.0 0.00 0.00 0.00 69 1019.5
20260510074811 48 107 3.0 8.0 0.00 0.00 0.00 70 1020.9
20260510074520 48 104 2.0 8.0 0.00 0.00 0.00 70 1019.4
20260510074055 48 119 3.0 8.0 0.00 0.00 0.00 69 1020.9
20260510074012 48 119 3.0 8.0 0.00 0.00 0.00 69 1019.5
20260510073552 48 118 3.0 6.0 0.00 0.00 0.00 70 1020.9
20260510073515 48 116 2.0 6.0 0.00 0.00 0.00 69 1019.6
20260510073318 48 98 4.0 7.0 0.00 0.00 0.00 68 1021.1
20260510073028 48 123 3.0 7.0 0.00 0.00 0.00 68 1019.6
20260510072553 48 116 4.0 7.0 0.00 0.00 0.00 69 1021.1
20260510072508 48 113 3.0 8.0 0.00 0.00 0.00 68 1019.6
20260510072053 48 98 4.0 8.0 0.00 0.00 0.00 68 1021.1
20260510072009 48 111 3.0 8.0 0.00 0.00 0.00 68 1019.6
20260510071552 49 116 3.0 8.0 0.00 0.00 0.00 69 1021.2
20260510071521 48 118 3.0 7.0 0.00 0.00 0.00 68 1019.6
20260510071319 49 114 2.0 4.0 0.00 0.00 0.00 68 1021.1
20260510071007 48 109 3.0 4.0 0.00 0.00 0.00 67 1019.6
20260510070552 49 121 2.0 6.0 0.00 0.00 0.00 66 1021.1
20260510070503 49 121 1.0 6.0 0.00 0.00 0.00 65 1019.7
20260510070051 49 103 3.0 6.0 0.00 0.00 0.00 66 1021.1
20260510070007 49 99 2.0 6.0 0.00 0.00 0.00 65 1019.8
20260510065807 50 118 2.0 6.0 0.00 0.00 0.00 67 1021.2
20260510065503 49 111 3.0 6.0 0.00 0.00 0.00 66 1019.7
20260510065042 50 120 1.0 6.0 0.00 0.00 0.00 64 1021.1
20260510065003 50 120 1.0 6.0 0.00 0.00 0.00 63 1019.8
20260510064536 50 130 2.0 7.0 0.00 0.00 0.00 62 1021.2
20260510064509 50 130 0.0 7.0 0.00 0.00 0.00 61 1019.8
20260510064029 51 115 4.0 7.0 0.00 0.00 0.00 63 1021.2
20260510064005 50 118 2.0 7.0 0.00 0.00 0.00 63 1019.9
20260510063739 51 95 4.0 7.0 0.00 0.00 0.00 62 1021.1
20260510063503 50 109 4.0 7.0 0.00 0.00 0.00 61 1019.8
20260510063017 51 110 3.0 7.0 0.00 0.00 0.00 64 1021.1
20260510063004 51 108 3.0 7.0 0.00 0.00 0.00 64 1019.8
20260510062740 51 107 3.0 7.0 0.00 0.00 0.00 65 1021.1
20260510062505 51 108 2.0 7.0 0.00 0.00 0.00 65 1019.7
20260510062011 51 110 2.0 7.0 0.00 0.00 0.00 63 1019.8
20260510062005 52 110 3.0 7.0 0.00 0.00 0.00 63 1021.1
20260510061520 51 109 2.0 8.0 0.00 0.00 0.00 61 1019.7
20260510061459 52 107 4.0 8.0 0.00 0.00 0.00 61 1021.1
20260510061003 51 111 5.0 8.0 0.00 0.00 0.00 61 1019.7
20260510060953 52 105 3.0 8.0 0.00 0.00 0.00 62 1021.2
20260510060503 51 110 2.0 8.0 0.00 0.00 0.00 59 1019.9
20260510060446 52 111 2.0 8.0 0.00 0.00 0.00 58 1021.3
20260510060035 51 97 3.0 7.0 0.00 0.00 0.00 58 1019.8
20260510055940 52 117 3.0 7.0 0.00 0.00 0.00 59 1021.3
20260510055507 52 138 3.0 7.0 0.00 0.00 0.00 60 1019.8
20260510055003 52 148 2.0 6.0 0.00 0.00 0.00 59 1019.9
20260510054929 52 148 1.0 6.0 0.00 0.00 0.00 59 1021.3
20260510054514 52 112 0.0 4.0 0.00 0.00 0.00 57 1019.9
20260510054423 52 112 1.0 4.0 0.00 0.00 0.00 58 1021.5
20260510054007 52 80 0.0 4.0 0.00 0.00 0.00 58 1020.1
20260510053923 52 80 2.0 4.0 0.00 0.00 0.00 59 1021.5
20260510053505 52 119 1.0 6.0 0.00 0.00 0.00 60 1020.0
20260510053423 52 122 2.0 6.0 0.00 0.00 0.00 61 1021.5
20260510053018 52 109 1.0 6.0 0.00 0.00 0.00 59 1020.1
20260510052924 53 109 2.0 6.0 0.00 0.00 0.00 60 1021.6
20260510052509 52 128 0.0 6.0 0.00 0.00 0.00 57 1020.0
20260510052423 53 216 1.0 6.0 0.00 0.00 0.00 57 1021.5
20260510052008 52 116 0.0 4.0 0.00 0.00 0.00 56 1019.8
20260510051924 53 126 2.0 4.0 0.00 0.00 0.00 57 1021.5
20260510051516 52 111 2.0 4.0 0.00 0.00 0.00 58 1019.9
20260510051423 53 112 1.0 4.0 0.00 0.00 0.00 58 1021.5
20260510051004 52 132 1.0 7.0 0.00 0.00 0.00 56 1020.1
20260510050923 53 104 1.0 7.0 0.00 0.00 0.00 55 1021.6
20260510050508 53 121 0.0 8.0 0.00 0.00 0.00 57 1020.0
20260510050424 53 121 2.0 8.0 0.00 0.00 0.00 58 1021.5
20260510050008 53 121 2.0 8.0 0.00 0.00 0.00 58 1019.9
20260510045924 53 106 2.0 8.0 0.00 0.00 0.00 58 1021.5
20260510045503 53 128 0.0 7.0 0.00 0.00 0.00 56 1019.9
20260510045423 53 130 2.0 7.0 0.00 0.00 0.00 55 1021.4
20260510045006 53 129 3.0 7.0 0.00 0.00 0.00 58 1020.0
20260510044923 53 128 4.0 7.0 0.00 0.00 0.00 58 1021.5
20260510044645 53 74 2.0 6.0 0.00 0.00 0.00 57 1021.4
20260510044542 53 81 3.0 7.0 0.00 0.00 0.00 58 1019.9
20260510044003 53 113 2.0 4.0 0.00 0.00 0.00 54 1020.1
20260510043926 54 101 1.0 4.0 0.00 0.00 0.00 56 1021.5
20260510043504 53 130 0.0 4.0 0.00 0.00 0.00 55 1020.1
20260510043421 54 131 1.0 4.0 0.00 0.00 0.00 56 1021.4
20260510043008 53 132 1.0 7.0 0.00 0.00 0.00 55 1020.0
20260510042921 54 136 2.0 7.0 0.00 0.00 0.00 55 1021.5
20260510042502 53 113 2.0 7.0 0.00 0.00 0.00 58 1019.9
20260510042422 54 113 3.0 7.0 0.00 0.00 0.00 59 1021.4
20260510042005 54 100 2.0 7.0 0.00 0.00 0.00 59 1019.8
20260510041922 54 99 2.0 7.0 0.00 0.00 0.00 60 1021.3
20260510041515 54 114 2.0 4.0 0.00 0.00 0.00 59 1019.9
20260510041415 54 106 2.0 4.0 0.00 0.00 0.00 58 1021.3
20260510041004 54 111 2.0 7.0 0.00 0.00 0.00 56 1019.8
20260510040909 55 111 3.0 7.0 0.00 0.00 0.00 56 1021.3
20260510040629 55 109 3.0 7.0 0.00 0.00 0.00 56 1021.2
20260510040505 54 115 2.0 7.0 0.00 0.00 0.00 55 1019.9
20260510040031 55 115 4.0 8.0 0.00 0.00 0.00 58 1019.8
20260510035857 55 103 4.0 8.0 0.00 0.00 0.00 59 1021.2
20260510035507 55 106 3.0 10.0 0.00 0.00 0.00 57 1019.7
20260510035351 55 96 5.0 10.0 0.00 0.00 0.00 57 1021.2
20260510035008 55 119 5.0 14.0 0.00 0.00 0.00 56 1019.6
20260510034845 56 94 6.0 14.0 0.00 0.00 0.00 57 1021.1
20260510034517 55 101 5.0 14.0 0.00 0.00 0.00 56 1019.6
20260510034340 56 107 4.0 14.0 0.00 0.00 0.00 53 1021.1
20260510034006 55 119 6.0 14.0 0.00 0.00 0.00 53 1019.8
20260510033835 56 107 2.0 10.0 0.00 0.00 0.00 52 1021.3
20260510033512 56 121 0.0 7.0 0.00 0.00 0.00 50 1019.9
20260510033336 56 137 1.0 7.0 0.00 0.00 0.00 50 1021.5
20260510033012 56 11 1.0 7.0 0.00 0.00 0.00 50 1019.8
20260510032835 56 187 1.0 7.0 0.00 0.00 0.00 50 1021.4
20260510032506 56 152 0.0 4.0 0.00 0.00 0.00 49 1019.9
20260510032336 56 240 1.0 4.0 0.00 0.00 0.00 48 1021.4
20260510032059 57 106 1.0 4.0 0.00 0.00 0.00 49 1021.4
20260510032013 56 126 1.0 4.0 0.00 0.00 0.00 48 1019.9
20260510031528 56 85 0.0 4.0 0.00 0.00 0.00 47 1019.8
20260510031332 57 74 1.0 3.0 0.00 0.00 0.00 48 1021.3
20260510031003 57 10 0.0 6.0 0.00 0.00 0.00 47 1019.7
20260510030833 57 225 1.0 6.0 0.00 0.00 0.00 47 1021.3
20260510030506 57 130 0.0 6.0 0.00 0.00 0.00 46 1019.7
20260510030333 57 114 1.0 6.0 0.00 0.00 0.00 48 1021.3
20260510030016 57 117 0.0 4.0 0.00 0.00 0.00 47 1019.8
20260510025833 58 117 1.0 4.0 0.00 0.00 0.00 47 1021.3
20260510025506 57 119 1.0 4.0 0.00 0.00 0.00 46 1019.8
20260510025334 58 114 1.0 6.0 0.00 0.00 0.00 47 1021.3
20260510025007 57 111 0.0 7.0 0.00 0.00 0.00 48 1019.8
20260510024829 58 111 2.0 7.0 0.00 0.00 0.00 47 1021.3
20260510024519 58 118 2.0 7.0 0.00 0.00 0.00 46 1019.8
20260510024007 58 130 0.0 4.0 0.00 0.00 0.00 46 1019.8
20260510023830 58 130 0.0 4.0 0.00 0.00 0.00 45 1021.4
20260510023552 58 130 1.0 6.0 0.00 0.00 0.00 44 1021.4
20260510023503 58 130 0.0 6.0 0.00 0.00 0.00 45 1019.9
20260510023021 58 120 0.0 6.0 0.00 0.00 0.00 45 1019.8
20260510022829 58 120 2.0 6.0 0.00 0.00 0.00 46 1021.4
20260510022510 58 104 1.0 6.0 0.00 0.00 0.00 45 1019.8
20260510022330 59 257 1.0 6.0 0.00 0.00 0.00 44 1021.4
20260510022013 58 80 2.0 6.0 0.00 0.00 0.00 44 1019.9
20260510021829 59 130 1.0 5.0 0.00 0.00 0.00 45 1021.5
20260510021514 58 151 0.0 5.0 0.00 0.00 0.00 44 1019.9
20260510021329 59 146 2.0 7.0 0.00 0.00 0.00 43 1021.4
20260510021006 59 132 1.0 7.0 0.00 0.00 0.00 43 1019.9
20260510020829 59 104 2.0 7.0 0.00 0.00 0.00 43 1021.4
20260510020550 59 110 1.0 6.0 0.00 0.00 0.00 43 1021.5
20260510020511 59 122 3.0 7.0 0.00 0.00 0.00 44 1019.9
20260510020020 59 115 2.0 7.0 0.00 0.00 0.00 42 1019.9
20260510015829 59 112 1.0 7.0 0.00 0.00 0.00 43 1021.5
20260510015547 59 127 2.0 7.0 0.00 0.00 0.00 44 1021.5
20260510015510 59 127 0.0 7.0 0.00 0.00 0.00 44 1019.9
20260510015007 59 115 0.0 7.0 0.00 0.00 0.00 43 1019.9
20260510014829 60 100 2.0 7.0 0.00 0.00 0.00 42 1021.5
20260510014517 59 121 1.0 7.0 0.00 0.00 0.00 42 1019.9
20260510014329 60 117 2.0 7.0 0.00 0.00 0.00 42 1021.5
20260510014055 60 94 1.0 4.0 0.00 0.00 0.00 41 1021.5
20260510014004 59 128 1.0 4.0 0.00 0.00 0.00 42 1020.0
20260510013505 59 60 0.0 5.0 0.00 0.00 0.00 41 1020.0
20260510013329 60 169 1.0 5.0 0.00 0.00 0.00 41 1021.5
20260510013019 59 160 0.0 5.0 0.00 0.00 0.00 40 1020.1
20260510012829 60 160 1.0 5.0 0.00 0.00 0.00 40 1021.6
20260510012507 59 125 1.0 4.0 0.00 0.00 0.00 38 1020.1
20260510012329 60 240 1.0 4.0 0.00 0.00 0.00 39 1021.6
20260510012011 60 146 0.0 4.0 0.00 0.00 0.00 38 1020.1
20260510011828 60 170 1.0 4.0 0.00 0.00 0.00 38 1021.7
20260510011525 60 104 0.0 4.0 0.00 0.00 0.00 40 1020.2
20260510011322 60 103 1.0 4.0 0.00 0.00 0.00 40 1021.7
20260510011007 60 132 0.0 10.0 0.00 0.00 0.00 38 1020.1
20260510010816 60 131 2.0 10.0 0.00 0.00 0.00 40 1021.7
20260510010504 60 246 1.0 10.0 0.00 0.00 0.00 39 1020.2
20260510010311 60 111 2.0 10.0 0.00 0.00 0.00 39 1021.7
20260510010027 60 279 1.0 6.0 0.00 0.00 0.00 38 1020.3
20260510005804 60 231 1.0 6.0 0.00 0.00 0.00 40 1021.7
20260510005510 60 240 1.0 6.0 0.00 0.00 0.00 37 1020.1
20260510005259 61 103 2.0 6.0 0.00 0.00 0.00 39 1021.7
20260510005014 60 247 2.0 8.0 0.00 0.00 0.00 37 1020.3
20260510004752 61 239 2.0 8.0 0.00 0.00 0.00 37 1021.7
20260510004515 60 107 2.0 8.0 0.00 0.00 0.00 40 1020.2
20260510004246 61 195 2.0 8.0 0.00 0.00 0.00 39 1021.7
20260510004002 60 117 1.0 7.0 0.00 0.00 0.00 40 1020.3
20260510003739 61 137 2.0 7.0 0.00 0.00 0.00 40 1021.7
20260510003506 60 92 2.0 7.0 0.00 0.00 0.00 40 1020.3
20260510003233 61 101 2.0 7.0 0.00 0.00 0.00 39 1021.7
20260510003018 60 109 3.0 8.0 0.00 0.00 0.00 39 1020.3
20260510002725 61 240 2.0 8.0 0.00 0.00 0.00 39 1021.7
20260510002502 60 232 1.0 8.0 0.00 0.00 0.00 38 1020.3
20260510002218 61 195 2.0 8.0 0.00 0.00 0.00 38 1021.9
20260510002003 60 113 3.0 8.0 0.00 0.00 0.00 38 1020.3
20260510001712 61 253 1.0 6.0 0.00 0.00 0.00 38 1021.7
20260510001504 60 248 1.0 5.0 0.00 0.00 0.00 38 1020.3
20260510001206 61 227 2.0 7.0 0.00 0.00 0.00 39 1021.9
20260510001003 60 227 2.0 8.0 0.00 0.00 0.00 38 1020.3
20260510000700 61 241 3.0 8.0 0.00 0.00 0.00 38 1021.9
20260510000504 61 258 2.0 8.0 0.00 0.00 0.00 39 1020.3
20260510000412 61 107 2.0 8.0 0.00 0.00 0.00 38 1021.9
20260510000014 61 128 2.0 8.0 0.00 0.00 0.00 38 1020.3
20260509235648 61 115 1.0 6.0 0.00 0.00 0.00 39 1022.0
20260509235502 61 244 2.0 4.0 0.00 0.00 0.00 36 1020.4
20260509235142 62 99 1.0 6.0 0.00 0.00 0.00 42 1022.0
20260509235002 61 80 0.0 6.0 0.00 0.00 0.00 41 1020.4
20260509234636 61 117 2.0 6.0 0.00 0.00 0.00 42 1022.0
20260509234508 61 115 1.0 6.0 0.00 0.00 0.00 43 1020.4
20260509234130 61 232 2.0 5.0 0.00 0.00 0.00 39 1022.0
20260509234010 61 180 1.0 5.0 0.00 0.00 0.00 39 1020.4
20260509233624 61 234 2.0 10.0 0.00 0.00 0.00 38 1022.1
20260509233503 61 181 1.0 10.0 0.00 0.00 0.00 39 1020.6
20260509233118 61 96 3.0 12.0 0.00 0.00 0.00 40 1022.1
20260509233009 61 95 2.0 12.0 0.00 0.00 0.00 39 1020.5
20260509232611 61 125 5.0 14.0 0.00 0.00 0.00 40 1022.1
20260509232506 61 157 1.0 14.0 0.00 0.00 0.00 40 1020.6
20260509232328 62 121 4.0 14.0 0.00 0.00 0.00 44 1022.3
20260509232007 61 121 4.0 14.0 0.00 0.00 0.00 45 1020.6
20260509231600 62 112 2.0 8.0 0.00 0.00 0.00 43 1022.2
20260509231521 61 101 1.0 8.0 0.00 0.00 0.00 42 1020.6
20260509231054 62 91 3.0 7.0 0.00 0.00 0.00 40 1022.3
20260509231003 61 252 1.0 9.0 0.00 0.00 0.00 38 1020.6
20260509230504 61 84 3.0 9.0 0.00 0.00 0.00 39 1020.7
20260509230042 61 108 2.0 8.0 0.00 0.00 0.00 41 1022.4
20260509230022 61 116 1.0 8.0 0.00 0.00 0.00 38 1020.8
20260509225754 61 109 3.0 10.0 0.00 0.00 0.00 40 1022.4
20260509225504 61 153 1.0 10.0 0.00 0.00 0.00 39 1020.9
20260509225030 61 102 3.0 10.0 0.00 0.00 0.00 40 1022.5
20260509225005 61 102 3.0 10.0 0.00 0.00 0.00 38 1021.0
20260509224524 61 245 3.0 9.0 0.00 0.00 0.00 38 1022.5
20260509224507 61 245 2.0 9.0 0.00 0.00 0.00 38 1021.1
20260509224018 61 123 2.0 8.0 0.00 0.00 0.00 40 1022.8
20260509224002 61 123 2.0 8.0 0.00 0.00 0.00 39 1021.1
20260509223739 62 115 2.0 8.0 0.00 0.00 0.00 42 1022.8
20260509223502 61 120 3.0 8.0 0.00 0.00 0.00 42 1021.1
20260509223012 61 237 1.0 7.0 0.00 0.00 0.00 38 1021.3
20260509223006 62 237 2.0 4.0 0.00 0.00 0.00 39 1022.8
20260509222505 62 218 3.0 9.0 0.00 0.00 0.00 39 1022.9
20260509222503 61 218 1.0 9.0 0.00 0.00 0.00 38 1021.4
20260509222007 62 105 4.0 10.0 0.00 0.00 0.00 41 1021.3
20260509221950 62 105 3.0 10.0 0.00 0.00 0.00 41 1022.8
20260509221512 61 91 1.0 10.0 0.00 0.00 0.00 40 1021.4
20260509221444 62 188 2.0 10.0 0.00 0.00 0.00 40 1022.9
20260509221006 61 275 1.0 8.0 0.00 0.00 0.00 39 1021.3
20260509220938 62 275 2.0 8.0 0.00 0.00 0.00 39 1022.8
20260509220511 61 111 4.0 10.0 0.00 0.00 0.00 40 1021.3
20260509220007 61 44 1.0 10.0 0.00 0.00 0.00 39 1021.4
20260509215926 62 225 4.0 10.0 0.00 0.00 0.00 40 1022.9
20260509215507 61 107 3.0 10.0 0.00 0.00 0.00 41 1021.4
20260509215420 62 131 3.0 10.0 0.00 0.00 0.00 43 1022.9
20260509215008 61 303 0.0 5.0 0.00 0.00 0.00 41 1021.4
20260509214914 62 232 2.0 5.0 0.00 0.00 0.00 40 1022.9
20260509214527 62 266 2.0 9.0 0.00 0.00 0.00 39 1021.3
20260509214409 62 259 3.0 9.0 0.00 0.00 0.00 40 1022.8
20260509214004 62 196 1.0 9.0 0.00 0.00 0.00 39 1021.3
20260509213902 63 279 3.0 9.0 0.00 0.00 0.00 39 1022.8
20260509213504 62 123 4.0 8.0 0.00 0.00 0.00 40 1021.4
20260509213356 63 107 3.0 8.0 0.00 0.00 0.00 42 1022.9
20260509213008 62 119 2.0 9.0 0.00 0.00 0.00 42 1021.5
20260509212849 62 132 3.0 9.0 0.00 0.00 0.00 45 1022.9
20260509212503 61 229 2.0 9.0 0.00 0.00 0.00 40 1021.3
20260509212344 62 313 3.0 9.0 0.00 0.00 0.00 42 1022.9
20260509212010 62 246 3.0 7.0 0.00 0.00 0.00 43 1021.4
20260509211838 62 213 2.0 7.0 0.00 0.00 0.00 43 1022.9
20260509211514 61 247 3.0 9.0 0.00 0.00 0.00 41 1021.3
20260509211332 62 244 2.0 9.0 0.00 0.00 0.00 41 1022.9
20260509211007 62 192 2.0 9.0 0.00 0.00 0.00 44 1021.3
20260509210826 62 100 2.0 9.0 0.00 0.00 0.00 42 1022.9
20260509210505 62 294 2.0 5.0 0.00 0.00 0.00 40 1021.2
20260509210320 63 238 2.0 4.0 0.00 0.00 0.00 41 1023.0
20260509210020 62 131 1.0 8.0 0.00 0.00 0.00 40 1021.3
20260509205815 63 252 2.0 8.0 0.00 0.00 0.00 41 1022.9
20260509205506 63 279 1.0 8.0 0.00 0.00 0.00 41 1021.2
20260509205308 63 248 2.0 8.0 0.00 0.00 0.00 40 1022.8
20260509205003 63 244 2.0 11.0 0.00 0.00 0.00 39 1021.2
20260509204802 63 136 3.0 11.0 0.00 0.00 0.00 42 1022.9
20260509204515 63 235 1.0 11.0 0.00 0.00 0.00 40 1021.3
20260509204256 63 132 4.0 11.0 0.00 0.00 0.00 43 1022.9
20260509204006 63 102 6.0 11.0 0.00 0.00 0.00 44 1021.3
20260509203751 63 132 3.0 9.0 0.00 0.00 0.00 43 1022.8
20260509203514 62 116 3.0 8.0 0.00 0.00 0.00 43 1021.2
20260509203244 62 204 3.0 8.0 0.00 0.00 0.00 44 1022.9
20260509203016 61 240 2.0 8.0 0.00 0.00 0.00 44 1021.2
20260509202738 62 307 3.0 8.0 0.00 0.00 0.00 44 1022.9
20260509202505 62 282 4.0 8.0 0.00 0.00 0.00 43 1021.2
20260509202232 62 284 2.0 8.0 0.00 0.00 0.00 44 1022.9
20260509202007 62 236 2.0 6.0 0.00 0.00 0.00 43 1021.3
20260509201951 62 134 2.0 6.0 0.00 0.00 0.00 45 1022.9
20260509201511 61 58 2.0 6.0 0.00 0.00 0.00 46 1021.3
20260509201220 61 319 2.0 5.0 0.00 0.00 0.00 47 1022.9
20260509201005 61 319 2.0 5.0 0.00 0.00 0.00 45 1021.4
20260509200714 61 240 1.0 5.0 0.00 0.00 0.00 47 1022.9
20260509200507 60 180 0.0 5.0 0.00 0.00 0.00 46 1021.4
20260509200208 60 224 2.0 7.0 0.00 0.00 0.00 47 1022.9
20260509200016 60 277 1.0 7.0 0.00 0.00 0.00 48 1021.4
20260509195919 60 199 3.0 9.0 0.00 0.00 0.00 48 1022.9
20260509195503 59 294 2.0 9.0 0.00 0.00 0.00 47 1021.4
20260509195156 60 320 2.0 9.0 0.00 0.00 0.00 47 1022.9
20260509195009 60 240 1.0 9.0 0.00 0.00 0.00 47 1021.4
20260509194651 60 134 2.0 7.0 0.00 0.00 0.00 50 1022.9
20260509194521 59 111 2.0 8.0 0.00 0.00 0.00 50 1021.5
20260509194145 59 80 3.0 8.0 0.00 0.00 0.00 49 1022.9
20260509194007 59 304 3.0 8.0 0.00 0.00 0.00 47 1021.6
20260509193638 59 316 3.0 9.0 0.00 0.00 0.00 48 1022.9
20260509193503 59 317 3.0 9.0 0.00 0.00 0.00 47 1021.5
20260509193132 60 294 2.0 9.0 0.00 0.00 0.00 49 1022.9
20260509193020 59 287 0.0 9.0 0.00 0.00 0.00 47 1021.4
20260509192627 59 319 3.0 8.0 0.00 0.00 0.00 49 1022.8
20260509192509 59 314 2.0 8.0 0.00 0.00 0.00 49 1021.3
20260509192121 59 317 3.0 8.0 0.00 0.00 0.00 48 1022.8
20260509192002 59 241 3.0 8.0 0.00 0.00 0.00 47 1021.2
20260509191614 60 288 2.0 8.0 0.00 0.00 0.00 48 1022.9
20260509191519 59 239 4.0 8.0 0.00 0.00 0.00 46 1021.4
20260509191330 60 285 2.0 10.0 0.00 0.00 0.00 49 1023.0
20260509191011 59 286 1.0 10.0 0.00 0.00 0.00 49 1021.4
20260509190603 59 330 2.0 10.0 0.00 0.00 0.00 50 1023.1
20260509190509 58 13 0.0 10.0 0.00 0.00 0.00 50 1021.4
20260509190056 58 320 3.0 9.0 0.00 0.00 0.00 51 1023.1
20260509190021 57 320 1.0 9.0 0.00 0.00 0.00 50 1021.5
20260509185814 58 248 4.0 8.0 0.00 0.00 0.00 49 1023.1
20260509185508 57 269 3.0 8.0 0.00 0.00 0.00 49 1021.6
20260509185043 57 345 3.0 8.0 0.00 0.00 0.00 51 1023.1
20260509185007 57 258 3.0 8.0 0.00 0.00 0.00 51 1021.6
20260509184541 57 283 3.0 7.0 0.00 0.00 0.00 51 1023.1
20260509184525 57 243 3.0 8.0 0.00 0.00 0.00 50 1021.6
20260509184006 57 257 2.0 8.0 0.00 0.00 0.00 49 1021.5
20260509183540 58 296 3.0 10.0 0.00 0.00 0.00 50 1023.0
20260509183510 57 289 1.0 10.0 0.00 0.00 0.00 49 1021.4
20260509183301 58 319 4.0 10.0 0.00 0.00 0.00 50 1023.0
20260509183023 57 314 3.0 10.0 0.00 0.00 0.00 49 1021.4
20260509182540 58 273 3.0 7.0 0.00 0.00 0.00 50 1022.9
20260509182504 57 267 2.0 6.0 0.00 0.00 0.00 50 1021.3
20260509182040 57 271 3.0 8.0 0.00 0.00 0.00 50 1022.9
20260509182007 57 271 2.0 8.0 0.00 0.00 0.00 50 1021.4
20260509181540 58 323 3.0 8.0 0.00 0.00 0.00 50 1022.9
20260509181527 57 280 4.0 8.0 0.00 0.00 0.00 50 1021.4
20260509181041 57 225 3.0 7.0 0.00 0.00 0.00 51 1022.8
20260509181013 56 225 3.0 7.0 0.00 0.00 0.00 50 1021.3
20260509180540 57 234 3.0 7.0 0.00 0.00 0.00 52 1022.8
20260509180510 56 300 2.0 7.0 0.00 0.00 0.00 52 1021.3
20260509180040 56 306 3.0 8.0 0.00 0.00 0.00 51 1022.7
20260509180029 56 318 2.0 8.0 0.00 0.00 0.00 51 1021.2
20260509175536 56 264 3.0 8.0 0.00 0.00 0.00 51 1022.5
20260509175510 56 317 4.0 8.0 0.00 0.00 0.00 50 1021.1
20260509175036 57 311 2.0 5.0 0.00 0.00 0.00 52 1022.5
20260509175009 56 280 2.0 5.0 0.00 0.00 0.00 52 1021.1
20260509174536 56 306 3.0 6.0 0.00 0.00 0.00 53 1022.5
20260509174517 55 306 1.0 6.0 0.00 0.00 0.00 51 1021.1
20260509174035 56 290 3.0 6.0 0.00 0.00 0.00 51 1022.4
20260509174010 55 286 3.0 6.0 0.00 0.00 0.00 51 1021.2
20260509173536 56 279 2.0 6.0 0.00 0.00 0.00 53 1022.7
20260509173504 55 263 1.0 6.0 0.00 0.00 0.00 52 1021.1
20260509173036 55 313 2.0 7.0 0.00 0.00 0.00 53 1022.7
20260509173021 55 301 0.0 7.0 0.00 0.00 0.00 52 1021.2
20260509172536 55 283 2.0 7.0 0.00 0.00 0.00 54 1022.8
20260509172507 54 284 1.0 7.0 0.00 0.00 0.00 53 1021.3
20260509172035 54 342 3.0 8.0 0.00 0.00 0.00 54 1022.8
20260509172009 53 342 2.0 8.0 0.00 0.00 0.00 54 1021.3
20260509171536 53 311 2.0 8.0 0.00 0.00 0.00 54 1021.3
20260509171035 53 313 2.0 7.0 0.00 0.00 0.00 54 1022.9
20260509171008 53 306 2.0 7.0 0.00 0.00 0.00 54 1021.4
20260509170536 53 276 3.0 7.0 0.00 0.00 0.00 55 1022.9
20260509170512 53 277 1.0 7.0 0.00 0.00 0.00 54 1021.5
20260509170036 53 242 3.0 7.0 0.00 0.00 0.00 55 1023.0
20260509170030 52 269 3.0 7.0 0.00 0.00 0.00 54 1021.5
20260509165536 53 246 3.0 7.0 0.00 0.00 0.00 55 1023.1
20260509165505 52 240 3.0 6.0 0.00 0.00 0.00 54 1021.5
20260509165036 52 313 2.0 6.0 0.00 0.00 0.00 56 1023.2
20260509165007 52 287 2.0 6.0 0.00 0.00 0.00 55 1021.6
20260509164536 52 317 2.0 6.0 0.00 0.00 0.00 55 1023.1
20260509164527 52 310 1.0 5.0 0.00 0.00 0.00 55 1021.6
20260509164036 52 283 2.0 7.0 0.00 0.00 0.00 57 1023.0
20260509164011 51 283 2.0 7.0 0.00 0.00 0.00 56 1021.6
20260509163533 52 300 2.0 7.0 0.00 0.00 0.00 56 1023.0
20260509163507 51 301 2.0 7.0 0.00 0.00 0.00 56 1021.5
20260509163300 52 281 2.0 6.0 0.00 0.00 0.00 57 1022.8
20260509163027 51 292 2.0 6.0 0.00 0.00 0.00 57 1021.4
20260509162527 52 319 3.0 6.0 0.00 0.00 0.00 56 1022.8
20260509162508 51 319 1.0 6.0 0.00 0.00 0.00 56 1021.3
20260509162020 52 310 2.0 6.0 0.00 0.00 0.00 56 1022.7
20260509162008 51 300 2.0 6.0 0.00 0.00 0.00 56 1021.3
20260509161529 51 292 2.0 5.0 0.00 0.00 0.00 57 1021.3
20260509161516 51 292 2.0 5.0 0.00 0.00 0.00 57 1022.7
20260509161236 51 294 3.0 6.0 0.00 0.00 0.00 58 1022.5
20260509161008 50 284 2.0 6.0 0.00 0.00 0.00 58 1021.2
20260509160511 50 319 2.0 6.0 0.00 0.00 0.00 58 1021.1
20260509160508 51 319 2.0 6.0 0.00 0.00 0.00 58 1022.4
20260509160230 51 311 2.0 7.0 0.00 0.00 0.00 58 1022.3
20260509160024 50 304 1.0 7.0 0.00 0.00 0.00 58 1021.1
20260509155509 50 275 3.0 7.0 0.00 0.00 0.00 58 1022.5
20260509155011 50 306 3.0 6.0 0.00 0.00 0.00 57 1021.0
20260509155008 50 306 3.0 6.0 0.00 0.00 0.00 58 1022.7
20260509154508 51 313 2.0 5.0 0.00 0.00 0.00 59 1022.5
20260509154504 50 313 2.0 5.0 0.00 0.00 0.00 58 1020.9
20260509154008 50 303 2.0 4.0 0.00 0.00 0.00 58 1022.4
20260509154004 49 303 1.0 4.0 0.00 0.00 0.00 58 1020.8
20260509153508 50 304 2.0 4.0 0.00 0.00 0.00 57 1022.4
20260509153503 49 304 2.0 4.0 0.00 0.00 0.00 57 1020.9
20260509153012 49 275 1.0 4.0 0.00 0.00 0.00 57 1020.8
20260509153008 50 275 2.0 4.0 0.00 0.00 0.00 57 1022.3
20260509152505 49 292 2.0 4.0 0.00 0.00 0.00 59 1022.4
20260509152503 49 292 2.0 4.0 0.00 0.00 0.00 58 1020.8
20260509152003 48 105 0.0 6.0 0.00 0.00 0.00 59 1020.9
20260509151505 48 105 2.0 6.0 0.00 0.00 0.00 61 1022.3
20260509151005 48 103 0.0 6.0 0.00 0.00 0.00 62 1022.3
20260509151002 47 105 3.0 6.0 0.00 0.00 0.00 62 1020.7
20260509150505 47 257 0.0 2.0 0.00 0.00 0.00 61 1022.3
20260509150503 47 257 0.0 2.0 0.00 0.00 0.00 60 1020.7
20260509150006 47 257 1.0 3.0 0.00 0.00 0.00 60 1022.3
20260509150003 46 257 0.0 3.0 0.00 0.00 0.00 60 1020.8
20260509145505 46 255 1.0 3.0 0.00 0.00 0.00 61 1020.8
20260509145503 46 255 1.0 3.0 0.00 0.00 0.00 61 1022.2
20260509145222 46 233 0.0 3.0 0.00 0.00 0.00 61 1022.1
20260509145003 45 233 0.0 3.0 0.00 0.00 0.00 61 1020.7
20260509144506 45 283 0.0 3.0 0.00 0.00 0.00 61 1020.7
20260509144457 46 283 0.0 3.0 0.00 0.00 0.00 61 1022.0
20260509144002 45 279 0.0 2.0 0.00 0.00 0.00 61 1020.6
20260509143951 45 279 1.0 2.0 0.00 0.00 0.00 62 1022.0
20260509143507 45 281 1.0 3.0 0.00 0.00 0.00 61 1020.6
20260509143446 45 281 1.0 3.0 0.00 0.00 0.00 63 1022.0
20260509143006 44 310 0.0 4.0 0.00 0.00 0.00 63 1020.5
20260509142939 45 310 1.0 4.0 0.00 0.00 0.00 64 1021.9
20260509142505 44 311 1.0 4.0 0.00 0.00 0.00 64 1020.4
20260509142433 44 323 1.0 4.0 0.00 0.00 0.00 65 1021.9
20260509142004 43 248 1.0 4.0 0.00 0.00 0.00 65 1020.4
20260509141927 44 252 0.0 4.0 0.00 0.00 0.00 65 1021.9
20260509141513 42 311 0.0 3.0 0.00 0.00 0.00 70 1020.4
20260509141425 43 311 1.0 3.0 0.00 0.00 0.00 70 1021.9
20260509141004 42 311 0.0 4.0 0.00 0.00 0.00 68 1020.3
20260509140911 42 311 1.0 4.0 0.00 0.00 0.00 70 1021.7
20260509140505 41 311 0.0 4.0 0.00 0.00 0.00 71 1020.2
20260509140405 41 311 2.0 4.0 0.00 0.00 0.00 72 1021.7
20260509140122 39 292 1.0 3.0 0.00 0.00 0.00 77 1021.5
20260509140004 39 293 1.0 3.0 0.00 0.00 0.00 76 1020.2
20260509135503 38 312 1.0 3.0 0.00 0.00 0.00 79 1020.1
20260509135353 38 275 1.0 3.0 0.00 0.00 0.00 79 1021.5
20260509135109 37 275 0.0 3.0 0.00 0.00 0.00 82 1021.5
20260509135002 37 275 0.0 3.0 0.00 0.00 0.00 81 1020.1
20260509134603 37 274 0.0 3.0 0.00 0.00 0.00 82 1021.5
20260509134508 36 274 0.0 3.0 0.00 0.00 0.00 82 1020.2
20260509134003 36 200 0.0 0.0 0.00 0.00 0.00 83 1020.2
20260509133835 36 170 0.0 0.0 0.00 0.00 0.00 83 1021.5
20260509133503 35 170 0.0 0.0 0.00 0.00 0.00 82 1020.1
20260509133330 36 101 0.0 0.0 0.00 0.00 0.00 82 1021.4
20260509133010 35 101 0.0 1.0 0.00 0.00 0.00 82 1020.1
20260509132823 35 101 0.0 1.0 0.00 0.00 0.00 83 1021.4
20260509132503 35 101 0.0 2.0 0.00 0.00 0.00 81 1020.1
20260509132317 35 101 0.0 2.0 0.00 0.00 0.00 83 1021.5
20260509132002 35 101 0.0 2.0 0.00 0.00 0.00 81 1020.1
20260509131811 35 101 0.0 2.0 0.00 0.00 0.00 81 1021.3
20260509131517 34 101 0.0 4.0 0.00 0.00 0.00 82 1019.9
20260509131304 35 101 1.0 6.0 0.00 0.00 0.00 82 1021.3
20260509131007 34 101 0.0 6.0 0.00 0.00 0.00 81 1019.8
20260509130759 35 101 1.0 6.0 0.00 0.00 0.00 84 1021.2
20260509130505 34 107 3.0 6.0 0.00 0.00 0.00 82 1019.8
20260509130253 34 98 1.0 3.0 0.00 0.00 0.00 80 1021.2
20260509130012 34 265 1.0 3.0 0.00 0.00 0.00 80 1021.2
20260509130007 34 265 0.0 3.0 0.00 0.00 0.00 80 1019.8
20260509125509 34 264 0.0 3.0 0.00 0.00 0.00 79 1019.8
20260509125242 34 264 0.0 3.0 0.00 0.00 0.00 79 1021.3
20260509125005 34 264 0.0 3.0 0.00 0.00 0.00 79 1019.8
20260509124735 34 271 0.0 1.0 0.00 0.00 0.00 79 1021.2
20260509124506 34 271 0.0 3.0 0.00 0.00 0.00 79 1019.6
20260509124450 34 271 1.0 3.0 0.00 0.00 0.00 80 1021.2
20260509124003 34 271 0.0 3.0 0.00 0.00 0.00 78 1019.9
20260509123723 34 271 1.0 3.0 0.00 0.00 0.00 79 1021.3
20260509123502 34 265 1.0 3.0 0.00 0.00 0.00 78 1019.9